Wainwright, AK

9:11 PM AKDT on April 28, 2017 (GMT -0800)
Wainwright

Weather History for PAWI - March, 2014

Change the Weather History Date:

Wednesday, March 26, 2014

  Actual Average (PABR) Record (PABR)
Temperature  
Mean Temperature 1 °F -  
Max Temperature 9 °F -7 °F 30 °F (1996)
Min Temperature -6 °F -18 °F -45 °F (1962)
Degree Days  
Heating Degree Days 64    
Moisture  
Dew Point -7 °F    
Average Humidity 72    
Maximum Humidity 76    
Minimum Humidity 69    
Precipitation  
Precipitation 0.00 in - - ()
Sea Level Pressure  
Sea Level Pressure 29.86 in    
Wind  
Wind Speed 9 mph (East)    
Max Wind Speed 15 mph    
Max Gust Speed -    
Visibility 10 miles    
Events      
Averages and records for this station are not official NWS values.
T = Trace of Precipitation, MM = Missing Value Source: NWS Daily Summary

Daily Weather History Graph

Daily Weather History Graph

Search for Another Location

Airport or City:

Trip Planner

Search our weather history database for the weather conditions in past years. The results will help you decide how hot, cold, wet, or windy it might be!

Date:

Astronomy

Mar. 26, 2014 Rise Set
Actual Time 8:08 AM AKDT 9:24 PM AKDT
Civil Twilight 7:03 AM AKDT 10:30 PM AKDT
Nautical Twilight 5:33 AM AKDT 12:02 AM AKDT
Astronomical Twilight 3:18 AM AKDT 2:12 AM AKDT
Moon 7:50 AM AKDT (3/26) 3:01 PM AKDT (3/26)
Length of Visible Light 15h 27m
Length of Day
13h 16m
Waning Crescent, 20% of the Moon is Illuminated
Mar 26
Waning Crescent
Mar 30
New
Apr 7
First Quarter
Apr 14
Full
Apr 21
Last Quarter

Hourly Weather History & Observations

Time (AKDT) Temp. Windchill Dew Point Humidity Pressure Visibility Wind Dir Wind Speed Gust Speed Precip Events Conditions
12:53 AM -2.0 °F -21.2 °F -9.0 °F 72% 29.92 in 10.0 mi East 13.8 mph - N/A   Clear
1:53 AM -2.0 °F -21.9 °F -9.0 °F 72% 29.91 in 10.0 mi East 15.0 mph - N/A   Clear
2:53 AM -2.9 °F -17.7 °F -9.9 °F 72% 29.91 in 10.0 mi East 8.1 mph - N/A   Clear
3:53 AM -4.0 °F -14.6 °F -11.0 °F 72% 29.90 in 10.0 mi ENE 4.6 mph - N/A   Clear
4:53 AM -5.1 °F -17.6 °F -11.9 °F 72% 29.90 in 10.0 mi East 5.8 mph - N/A   Clear
5:53 AM -5.1 °F -23.5 °F -11.9 °F 72% 29.88 in 10.0 mi East 11.5 mph - N/A   Clear
6:53 AM -5.1 °F -23.5 °F -11.9 °F 72% 29.87 in 10.0 mi East 11.5 mph - N/A   Clear
7:53 AM -5.1 °F -20.4 °F -11.9 °F 72% 29.87 in 10.0 mi East 8.1 mph - N/A   Clear
8:53 AM -6.0 °F -18.6 °F -13.0 °F 72% 29.86 in 10.0 mi ENE 5.8 mph - N/A   Clear
9:53 AM -5.1 °F -19.1 °F -11.9 °F 72% 29.87 in 10.0 mi East 6.9 mph - N/A   Clear
10:53 AM -2.0 °F -12.2 °F -9.0 °F 72% 29.86 in 10.0 mi SE 4.6 mph - N/A   Clear
11:53 AM 1.0 °F -8.7 °F -7.1 °F 69% 29.86 in 10.0 mi ESE 4.6 mph - N/A   Clear
12:53 PM 1.9 °F -7.6 °F -5.1 °F 72% 29.87 in 10.0 mi East 4.6 mph - N/A   Clear
1:53 PM 3.9 °F -6.9 °F -4.0 °F 70% 29.87 in 10.0 mi SE 5.8 mph - N/A   Clear
2:53 PM 6.1 °F -0.9 °F -0.9 °F 73% 29.86 in 10.0 mi East 3.5 mph - N/A   Clear
3:53 PM 8.1 °F -4.3 °F -0.0 °F 70% 29.85 in 9.0 mi NNE 8.1 mph - 0.00 in   Clear
4:53 PM 7.0 °F -4.5 °F -0.0 °F 73% 29.85 in 10.0 mi East 6.9 mph - N/A   Clear
5:53 PM 8.1 °F 1.4 °F 1.0 °F 73% 29.84 in 10.0 mi ENE 3.5 mph - N/A   Clear
6:53 PM 7.0 °F -3.3 °F -0.0 °F 73% 29.83 in 10.0 mi East 5.8 mph - N/A   Clear
7:53 PM 5.0 °F -10.0 °F -2.0 °F 73% 29.83 in 10.0 mi East 10.4 mph - N/A   Clear
8:53 PM 3.0 °F -12.5 °F -4.0 °F 73% 29.82 in 10.0 mi East 10.4 mph - N/A   Clear
9:53 PM 1.0 °F -14.9 °F -6.0 °F 72% 29.82 in 10.0 mi ENE 10.4 mph - N/A   Clear
10:53 PM -0.0 °F -11.6 °F -6.0 °F 76% 29.82 in 10.0 mi ESE 5.8 mph - N/A   Clear
11:53 PM -0.0 °F -11.6 °F -6.0 °F 76% 29.83 in 10.0 mi ESE 5.8 mph - N/A   Clear